Regional Weather Roundup
Issued by NWS New Orleans/Baton Rouge, LA

Home | Current Version | Previous Version | Text Only | Print | Product List | Glossary Off
Versions: 1 2 3 4 5 6 7 8 9 10 11 12 13 14 15 16 17 18 19 20 21 22 23 24 25 26 27 28 29 30 31 32 33 34 35 36 37 38 39 40 41 42 43 44 45 46 47 48 49 50

543
ASUS44 KLIX 172001
RWRLIX
NEW ORLEANS REGIONAL WEATHER ROUNDUP
NATIONAL WEATHER SERVICE NEW ORLEANS LA
300 PM CDT WED SEP 17 2014

NOTE: "FAIR" INDICATES FEW OR NO CLOUDS BELOW 12,000 FEET WITH NO
      SIGNIFICANT WEATHER AND/OR OBSTRUCTIONS TO VISIBILITY.
      SKY/WX - SKY CONDITION AND SIGNIFICANT WEATHER.
      TMP - AIR TEMPERATURE.     DP    - DEWPOINT TEMPERATURE.
      RH  - RELATIVE HUMIDITY.   PRES  - PRESSURE.
      HI  - HEAT INDEX.          WCI   - WIND CHILL INDEX.

*  THESE STATIONS ARE NOT NWS OR FAA STATIONS AND ARE NOT UNDER
   NWS QUALITY CONTROL.

LAZ038-040-048-061>063-065>067-069-172100-
SOUTHEAST LOUISIANA

CITY           SKY/WX    TMP DP  RH WIND       PRES   REMARKS
N.O. AUDUBON     N/A     90  74  58 MISG        N/A  HX  99
N.O. INTL ARPT CLOUDY    88  69  53 N7        29.94S
N.O. LAKEFRONT CLOUDY    86  72  62 N6        29.94F
N.O. DOWNTOWN*   N/A     88  68  51 NW6       29.94S
SLIDELL        PTSUNNY   88  70  55 E5        29.92F
BATON ROUGE    CLOUDY    86  73  65 VRB5      29.93F
BOOTHVILLE     PTSUNNY   85  73  67 VRB3      29.94S
BELLE CHASSE   PTSUNNY   83  72  69 SW7       29.93S
BOGALUSA*        N/A     90  69  50 CALM      29.93F HX  95
GALLIANO*      NOT AVBL
NEW ROADS*       N/A     85  72  64 N3        29.93F
GONZALES*        N/A     86  75  68 E5        29.92F
HAMMOND*       NOT AVBL
HOUMA*         MOSUNNY   90  66  45 N5        29.92F
PORT FOURCHON* CLOUDY    84  75  74 W6        29.96F

$$

MSZ070-080>082-172100-
SOUTHERN MISSISSIPPI

CITY           SKY/WX    TMP DP  RH WIND       PRES   REMARKS
MCCOMB         PTSUNNY   85  69  58 CALM      29.93F
GULFPORT       MOSUNNY   87  73  62 S6        29.91F
BILOXI         SUNNY     88  72  58 S7        29.92F
PASCAGOULA     PTSUNNY   85  73  67 S7        29.91F
STENNIS ARPT*  MOSUNNY   86  72  62 SW5       29.93F

$$

COASTAL OBSERVATIONS
LAKE AND NEARSHORE STATIONS

STATION/POSITION TIME  TEMP    WIND        PRES    WAVE
                       AIR SEA DIR/SP/G            HT/PER
                 (UTC) (F)     (DEG/KT/KT) (MB)    (FT/S)
PASCAGOULA       1900   86     190/  6/  9 1012.9
WAVELAND YACHT   1900   82     160/  9/ 11 1012.9
GRAND ISLE       1900   84 86  150/  5/  7 1014.4
SOUTHWEST PASS   1900   89 92  230/  4/  7 1014.0
NEW CANAL        1900   83 83   20/  6/  7 1014.1
SHELL BEACH      1900   82 82   10/  5/  6 1013.8

OFFSHORE STATIONS

STATION/POSITION TIME  TEMP    WIND        PRES    WAVE
                       AIR SEA DIR/SP/G            HT/PER
                 (UTC) (F)     (DEG/KT/KT) (MB)    (FT/S)
64 S DAUPHIN ISL 1942   82 87   60/  6/  8 1013.6    1/ 8

$$




USA.gov is the U.S. government's official web portal to all federal, state and local government web resources and services.